date,time,DOY,Ta_1_1_1,RH_1_1_1,LWin_1_1_1,LWout_1_1_1,SWin_1_1_1,SWout_1_1_1,PPFD_1_1_1,SWC_1_1_1,Ts_1_1_1
[yyyy-mm-dd],[HH:MM],[ddd.ddd],[K],[%],[W+1m-2],[W+1m-2],[W+1m-2],[W+1m-2],[µmol+1m-2s-1],[m+3m-3],[K]
2013-11-28,00:30,332.020,263.31500000000000,88.638333333333335,-7.9743333333333339,-9999.0,-0.42400000000000015,-2.0639999999999996,-4.23333333333333478E-002,0.33000000000000002,274.46300000000002
2013-11-28,01:00,332.041,263.24766666666670,88.874666666666656,-7.0539999999999985,-9999.0,-0.52666666666666662,-1.3513333333333333,-3.23333333333333459E-002,0.33000000000000002,274.46366666666671
2013-11-28,01:30,332.062,263.25133333333326,89.009999999999991,-6.5993333333333339,-9999.0,-0.57100000000000006,-1.2733333333333332,-2.93333333333333432E-002,0.33000000000000002,274.46066666666667
2013-11-28,02:00,332.083,263.26900000000006,89.029000000000011,-6.4823333333333331,-9999.0,-0.55900000000000005,-1.2336666666666665,-2.90000000000000119E-002,0.33000000000000002,274.45499999999998
2013-11-28,02:30,332.104,263.27200000000005,88.971333333333348,-6.7133333333333338,-9999.0,-0.62433333333333330,-1.2563333333333335,-3.40000000000000163E-002,0.33000000000000002,274.45266666666663
2013-11-28,03:00,332.124,263.29033333333342,88.763333333333350,-6.8673333333333320,-9999.0,-0.61133333333333328,-1.3713333333333333,-3.76666666666666677E-002,0.33000000000000002,274.44999999999987
2013-11-28,03:30,332.145,263.28600000000000,88.728666666666697,-7.0326666666666675,-9999.0,-0.69366666666666676,-1.3159999999999996,-3.43333333333333476E-002,0.33000000000000002,274.44333333333327
2013-11-28,04:00,332.166,263.32833333333326,88.920666666666634,-7.0306666666666668,-9999.0,-0.80133333333333345,-1.1073333333333335,-2.20000000000000057E-002,0.33000000000000002,274.44133333333326
2013-11-28,04:30,332.187,263.39433333333329,88.963999999999999,-6.8509999999999991,-9999.0,-0.81666666666666676,-1.1340000000000003,-3.73333333333333434E-002,0.33000000000000002,274.43833333333339
2013-11-28,05:00,332.208,263.41199999999998,88.895999999999958,-6.6036666666666672,-9999.0,-0.76433333333333353,-1.0673333333333332,-3.53333333333333485E-002,0.33000000000000002,274.43200000000007
2013-11-28,05:30,332.229,263.38999999999999,88.881000000000014,-6.5379999999999994,-9999.0,-0.71699999999999997,-1.1386666666666665,-4.03333333333333530E-002,0.33000000000000002,274.42833333333334
2013-11-28,06:00,332.249,263.40766666666667,88.940666666666672,-7.0430000000000001,-9999.0,-0.82366666666666655,-1.1546666666666670,-3.36666666666666850E-002,0.33000000000000002,274.42966666666661
2013-11-28,06:30,332.270,263.42000000000002,89.283666666666647,-7.4146666666666645,-9999.0,-0.92466666666666675,-1.2813333333333332,-3.66666666666666877E-002,0.33000000000000002,274.43166666666662
2013-11-28,07:00,332.291,263.42166666666668,89.405666666666676,-7.8803333333333345,-9999.0,-0.96799999999999986,-1.4209999999999998,0.10600000000000000,0.33000000000000002,274.42899999999997
2013-11-28,07:30,332.312,263.42733333333337,89.187333333333285,-8.0273333333333348,-9999.0,-0.28900000000000003,0.88233333333333352,6.1049999999999986,0.33000000000000002,274.42900000000003
2013-11-28,08:00,332.333,263.47000000000003,89.268000000000015,-8.4360000000000017,-9999.0,4.0933333333333328,16.460333333333335,36.557666666666670,0.33000000000000002,274.43233333333330
2013-11-28,08:30,332.354,263.63866666666672,89.166333333333327,-8.0926666666666680,-9999.0,11.739333333333336,43.179999999999993,88.988999999999990,0.33000000000000002,274.43533333333323
2013-11-28,09:00,332.374,263.94633333333343,88.518666666666661,-8.4586666666666694,-9999.0,18.765666666666668,68.638999999999996,141.96099999999996,0.33000000000000002,274.43566666666652
2013-11-28,09:30,332.395,264.31833333333333,87.631000000000014,-8.7594117647058845,-9999.0,29.841000000000001,94.158666666666662,227.98666666666659,0.33000000000000002,274.43366666666668
2013-11-28,10:00,332.416,265.20999999999998,82.753333333333345,-9.8499999999999996,-9999.0,59.428999999999995,133.11500000000001,434.84833333333347,0.33000000000000002,274.44199999999995
2013-11-28,10:30,332.437,264.67133333333339,82.117000000000019,-8.4370588235294122,-9999.0,46.944333333333347,127.37166666666667,379.05066666666670,0.33000000000000002,274.44566666666657
2013-11-28,11:00,332.458,265.15566666666666,78.969666666666654,-7.4563333333333324,-9999.0,68.681666666666644,192.42633333333330,515.83966666666663,0.33000000000000002,274.44933333333330
2013-11-28,11:30,332.479,264.95600000000002,78.540333333333308,-7.5680000000000023,-9999.0,35.497333333333330,135.19766666666666,292.11600000000004,0.33000000000000002,274.45966666666669
2013-11-28,12:00,332.499,265.12500000000000,76.726000000000013,-8.2423333333333311,-9999.0,45.089333333333343,166.92033333333330,373.50466666666676,0.33000000000000002,274.46466666666674
2013-11-28,12:30,332.520,265.10766666666672,76.861333333333320,-7.0903333333333336,-9999.0,33.435666666666670,131.51833333333332,273.52166666666670,0.33000000000000002,274.47033333333343
2013-11-28,13:00,332.541,265.48733333333337,72.252333333333340,-7.4789999999999992,-9999.0,41.317333333333330,162.41466666666670,339.10133333333329,0.33000000000000002,274.47766666666672
2013-11-28,13:30,332.562,265.36000000000001,75.495666666666679,-7.4120000000000008,-9999.0,24.826000000000001,102.01200000000001,210.64066666666665,0.32033333333333341,274.48400000000004
2013-11-28,14:00,332.583,265.54366666666664,71.057999999999993,-7.4916666666666654,-9999.0,33.899333333333331,140.23533333333336,282.78200000000004,0.32000000000000012,274.49166666666662
2013-11-28,14:30,332.604,265.87566666666669,72.812666666666658,-9.0064285714285699,-9999.0,33.866666666666667,148.78433333333334,295.51299999999998,0.32000000000000012,274.49866666666668
2013-11-28,15:00,332.624,265.96733333333333,72.101000000000013,-9999.0,-9999.0,38.139333333333333,187.35799999999998,339.09500000000003,0.32000000000000012,274.50033333333340
2013-11-28,15:30,332.645,265.85533333333331,73.143000000000001,-9.4299999999999997,-9999.0,11.369333333333339,55.603000000000002,123.86366666666665,0.32000000000000012,274.50600000000009
2013-11-28,16:00,332.666,265.53000000000003,78.301999999999978,-9.1785714285714288,-9999.0,3.9136666666666664,15.312333333333337,50.528000000000006,0.32000000000000012,274.51333333333343
2013-11-28,16:30,332.687,265.36266666666660,80.801333333333318,-9999.0,-9999.0,1.3493333333333333,-0.39333333333333342,13.156000000000001,0.32000000000000012,274.51266666666675
2013-11-28,17:00,332.708,265.40600000000001,82.468333333333320,-9999.0,-9999.0,0.54566666666666674,-3.6236666666666664,0.35833333333333339,0.32000000000000012,274.51633333333342
2013-11-28,17:30,332.729,265.13666666666666,85.561333333333337,-9.8500000000000014,-9999.0,-0.54933333333333334,-1.6220000000000003,-6.76666666666666944E-002,0.32000000000000012,274.51600000000013
2013-11-28,18:00,332.749,265.25866666666667,85.409000000000006,-9.0920000000000005,-9999.0,-0.55799999999999994,-1.1843333333333332,-7.00000000000000205E-002,0.32000000000000012,274.51466666666681
2013-11-28,18:30,332.770,265.37366666666674,83.608666666666679,-8.3638461538461542,-9999.0,-0.41633333333333333,-2.0779999999999998,-6.66666666666666935E-002,0.32000000000000012,274.51000000000010
2013-11-28,19:00,332.791,265.14833333333331,83.877000000000010,-9999.0,-9999.0,-0.13066666666666668,-3.5690000000000008,-5.73333333333333472E-002,0.32000000000000012,274.50100000000003
2013-11-28,19:30,332.812,264.81266666666664,83.579666666666668,-9999.0,-9999.0,0.10233333333333333,-4.1166666666666663,-4.33333333333333487E-002,0.32000000000000012,274.49533333333324
2013-11-28,20:00,332.833,264.53466666666674,83.122333333333330,-9999.0,-9999.0,0.27266666666666667,-3.9703333333333344,-3.83333333333333512E-002,0.32000000000000012,274.49033333333324
2013-11-28,20:30,332.854,263.71000000000004,85.671333333333322,-9999.0,-9999.0,-0.21800000000000003,-4.3776666666666664,-2.96666666666666780E-002,0.32000000000000012,274.48866666666657
2013-11-28,21:00,332.874,263.45866666666666,85.989666666666650,-9.3728571428571428,-9999.0,-0.13333333333333336,-2.4459999999999993,-2.26666666666666752E-002,0.32000000000000012,274.47700000000003
2013-11-28,21:30,332.895,263.47900000000004,86.048666666666705,-8.7787499999999987,-9999.0,-0.13333333333333328,-2.1296666666666670,-2.16666666666666709E-002,0.32000000000000012,274.46400000000006
2013-11-28,22:00,332.916,263.62400000000002,86.028000000000020,-9.1075999999999979,-9999.0,-7.00000000000000795E-003,-1.7853333333333330,-3.83333333333333512E-002,0.32000000000000012,274.45399999999995
2013-11-28,22:30,332.937,263.79433333333338,86.269000000000020,-8.1203333333333330,-9999.0,-0.30966666666666670,-1.2076666666666667,-3.63333333333333494E-002,0.32000000000000012,274.43799999999993
2013-11-28,23:00,332.958,263.74133333333339,87.262666666666647,-6.8690000000000015,-9999.0,-0.51533333333333331,-1.0036666666666665,-3.66666666666666877E-002,0.32000000000000012,274.43066666666670
2013-11-28,23:30,332.979,263.56833333333344,88.121666666666670,-8.0039999999999996,-9999.0,-0.56133333333333346,-1.8619999999999999,-3.93333333333333521E-002,0.32000000000000012,274.41500000000002
2013-11-29,00:00,333.000,263.43900000000002,88.623666666666651,-8.1199999999999992,-9999.0,-0.31266666666666665,-2.0393333333333330,-2.46666666666666735E-002,0.32000000000000012,274.40499999999997
